Location: Strawberry
(33.0916°N, 80.0306°W)
Time: 07:11:27
(UTC+00:00)

Hubble Space Telescope - Pass Details

Date: 07 December 2022
Orbit: 529 x 532 km, 28.5° (Epoch: 29 January)

Event Time Altitude Azimuth Distance (km) Brightness Sun altitude
Rises 11:38:53 0° 246° (WSW) 2,650 3.9 -6.8°
Reaches altitude 10° 11:41:15 10° 237° (WSW) 1,761 3.1 -6.3°
Maximum altitude 11:45:00 36° 170° (S) 849 2.2 -5.6°
Drops below altitude 10° 11:48:44 10° 104° (ESE) 1,761 5.2 -4.9°
Sets 11:51:06 0° 95° (E) 2,650 6.0 -4.4°
